Location: Chuathbaluk
(61.5726°N, 159.2454°W)
Time: 14:44:59
(UTC+00:00)

SR - Pass Details

Date: 29 November 2020
Orbit: 575 x 880 km, 66.7° (Epoch: 17 January)

Event Time Altitude Azimuth Distance (km) Brightness Sun altitude
Rises 04:39:27 0° 177° (S) 2,845 ? -20.5°
Reaches altitude 10° 04:42:08 10° 160° (SSE) 1,984 ? -20.8°
Enters shadow 04:42:24 11° 157° (SSE) 1,912 ? -20.9°
